Regional Weather Roundup
Issued by NWS

Home | Current Version | Previous Version | Graphics & Text | Print | Product List | Glossary On
Versions: 1 2 3 4 5 6 7 8 9 10 11 12 13 14 15 16 17 18 19 20 21 22 23 24 25 26 27 28 29 30 31 32 33 34 35 36 37 38 39 40 41 42 43 44 45 46 47 48 49 50
000
ASUS43 KBIS 230710
RWRND

NORTH DAKOTA REGIONAL WEATHER ROUNDUP
NATIONAL WEATHER SERVICE BISMARCK ND
200 AM CDT MON OCT 23 2017

NOTE: "FAIR" INDICATES FEW OR NO CLOUDS BELOW 12,000 FEET WITH NO
SIGNIFICANT WEATHER AND/OR OBSTRUCTIONS TO VISIBILITY.


NDZ001>003-009>011-017-230800-
NORTHWEST NORTH DAKOTA

CITY           SKY/WX    TMP DP  RH WIND       PRES   REMARKS
WILLISTON        N/A    N/A N/A N/A MISG      29.87R
MINOT          CLOUDY    49  33  54 W24G30    29.73R
MINOT AFB      MOCLDY    46  34  62 NW21G31   29.71R
$$

NDZ018>021-031>035-040>046-230800-
SOUTHWEST NORTH DAKOTA

CITY           SKY/WX    TMP DP  RH WIND       PRES   REMARKS
BISMARCK       CLOUDY    52  40  63 NW15      29.79R
DICKINSON      CLOUDY    47  36  65 W29G41    29.86R
GARRISON         N/A     47  35  63 NW16      29.77R
HETTINGER ARPT CLEAR     45  35  68 W20G30    29.93R
$$

NDZ004>008-012>016-024-026-027-054-230800-
NORTHEAST NORTH DAKOTA

CITY           SKY/WX    TMP DP  RH WIND       PRES   REMARKS
GRAND FORKS    LGT RAIN  56  48  74 W21G30    29.57R
GRND FRKS AFB  LGT RAIN  54  48  80 W16G30    29.58R
DEVILS LAKE    CLOUDY    51  36  56 W21G26    29.63R
$$

NDZ022-023-025-028>030-036>039-047>053-230800-
SOUTHEAST NORTH DAKOTA

CITY           SKY/WX    TMP DP  RH WIND       PRES   REMARKS
FARGO          CLOUDY    50  40  68 SW8       29.63F
JAMESTOWN      CLOUDY    54  40  59 W22G30    29.68R
$$





USA.gov is the U.S. government's official web portal to all federal, state and local government web resources and services.